{"data":{"norad_id":39508,"intl_designator":"2014-006A","name":"ABS-2","alt_names":[],"object_type":"PAYLOAD","status":"ACTIVE","operator":null,"country":"ABS","launch_date":"2014-02-06","launch_site_code":"FRGUI","launch_vehicle":null,"mission":null,"orbit_class":"UNKNOWN","rcs_meters":0.3533,"size_class":null,"mass_kg":null,"dimensions":null,"purposes":["comms"],"wikipedia_slug":null,"has_3d_model":false,"image_url":null,"decayed_at":null,"tle_current":{"epoch":"2026-09-20T00:10:09.905376Z","epoch_age_seconds":68257,"freshness":"FRESH","line1":"1 39508U 14006A   26263.00705909  .00000000  00000+0  00000+0 0  9993","line2":"2 39508   0.0206 164.6110 0003467  11.3525 260.4184  1.00269871 46224","mean_motion":1.00269871,"eccentricity":0.0003467,"inclination_deg":0.0206,"raan_deg":164.611,"arg_perigee_deg":11.3525,"mean_anomaly_deg":260.4184,"bstar":0,"rev_number":4622,"period_min":1436.1243169446,"perigee_km":35772.512834806,"apogee_km":35801.750232007,"semimajor_km":42165.268533406,"source":"CELESTRAK","updated_at":"2026-09-20T09:00:35.209002Z"}}}